Location: Casilda
(33.0440°S, 61.1680°W)
Time: 01:54:22
(UTC-03:00)

ISS - Pass Details

Date: 16 February 2020
Orbit: 415 x 423 km, 51.6° (Epoch: 27 February)

Event Time Altitude Azimuth Distance (km) Brightness Sun altitude
Rises 22:02:55 0° 267° (W) 2,374 0.9 -25.0°
Reaches altitude 10° 22:06:03 10° 236° (SW) 1,514 0.1 -25.5°
Maximum altitude 22:07:33 12° 209° (SSW) 1,378 -0.3 -25.8°
Drops below altitude 10° 22:09:04 10° 183° (S) 1,518 -0.5 -26.0°
Enters shadow 22:10:53 - 161° (SSE) 1,958 -0.2 -26.3°
